This is the latest recevied weather packets stored in our database for station/object K8JCL-13. If no packets are shown the sender has not sent any weather packets the latest 10 day(s).
| Time | Temp. | Humidity | Pressure | Rain* | Wind** | Luminosity | Snow |
|---|---|---|---|---|---|---|---|
| 1777552224 | 6.67° C | 88% | 1015.4 hPa | 0 mm | - | 84 W/m² | - |
| 1777551922 | 6.67° C | 88% | 1015.3 hPa | 0 mm | - | 98 W/m² | - |
| 1777551619 | 6.67° C | 88% | 1015 hPa | 0 mm | - | 75 W/m² | - |
| 1777551317 | 6.67° C | 88% | 1015.2 hPa | 0 mm | - | 66 W/m² | - |
| 1777551013 | 6.67° C | 89% | 1015.1 hPa | 0 mm | - | 56 W/m² | - |
| 1777550710 | 6.67° C | 89% | 1015.2 hPa | 0 mm | - | 55 W/m² | - |
| 1777550406 | 6.67° C | 89% | 1015.1 hPa | 0 mm | - | 49 W/m² | - |
| 1777550103 | 6.67° C | 89% | 1015.1 hPa | 0 mm | - | 40 W/m² | - |
| 1777549799 | 6.11° C | 88% | 1015.1 hPa | 0 mm | - | 35 W/m² | - |
| 1777549495 | 6.67° C | 88% | 1015 hPa | 0 mm | - | 36 W/m² | - |
| 1777549191 | 6.67° C | 88% | 1014.8 hPa | 0 mm | - | 33 W/m² | - |
| 1777548888 | 6.11° C | 89% | 1014.6 hPa | 0 mm | - | 46 W/m² | - |
| 1777548584 | 6.11° C | 89% | 1014.7 hPa | 0 mm | - | 34 W/m² | - |
| 1777548281 | 5.56° C | 89% | 1014.4 hPa | 0 mm | - | 25 W/m² | - |
| 1777547979 | 5.56° C | 89% | 1014.5 hPa | 0 mm | - | 18 W/m² | - |
| 1777547674 | 6.11° C | 89% | 1014.5 hPa | 0 mm | - | 17 W/m² | - |
| 1777547371 | 6.11° C | 89% | 1014.3 hPa | 0 mm | - | 16 W/m² | - |
| 1777547069 | 6.11° C | 88% | 1014.6 hPa | 0 mm | - | 12 W/m² | - |
| 1777546766 | 6.11° C | 88% | 1014.7 hPa | 0 mm | - | 9 W/m² | - |
| 1777546463 | 6.11° C | 88% | 1014.6 hPa | 0 mm | - | 6 W/m² | - |
| 1777546159 | 6.11° C | 88% | 1014.2 hPa | 0 mm | - | 4 W/m² | - |
| 1777545856 | 6.11° C | 88% | 1014.4 hPa | 0 mm | - | 3 W/m² | - |
| 1777545553 | 6.11° C | 88% | 1014.4 hPa | 0 mm | - | 2 W/m² | - |
| 1777545249 | 6.11° C | 88% | 1014.4 hPa | 0 mm | - | 1 W/m² | - |
| 1777544947 | 5.56° C | 88% | 1014.6 hPa | 0 mm | - | 0 W/m² | - |
* Rain latest hour (hover to see other rain measurements)
** Current wind speed in m/s (hover to see current wind gust speed)